[[{"header":{"parameterUnit":"m.s-1","parameterCategory":1,"la1":30.2991,"la2":30.254,"lo1":-89.0895,"lo2":-89.0444,"dy":0.0017,"dx":0.0017,"nx":28,"ny":28,"refTime":"2024-04-13T03:00:00:Z","depth":0,"parameterNumber":2,"parameterNumberName":"U-component_of_WINDS"},"data":[0,0,0,0,0,0,0,0,0,0,0,0,0,0,0,0,0,0,0,0,0,0,0,0,0,0,0,0,0,0,0,0,0,0,0,0,0,0,0,0,0,0,0,0,0,0,0,0,0,0,0,0,0,0,0,0,0,0,-2.2071,-2.2071,0,-2.2092,-2.2092,-2.2092,-2.2034,-2.2032,-2.2031,-2.2029,-2.2052,-2.2054,-2.2056,0,0,0,0,0,0,0,0,0,0,0,0,0,-2.1984,-2.1986,-2.2071,-2.2071,-2.2072,-2.2092,-2.2092,-2.2092,-2.2035,-2.2032,-2.203,-2.2028,-2.2051,-2.2054,-2.2056,0,0,0,0,0,0,0,0,0,0,0,0,0,-2.2015,-2.1987,-2.2071,-2.2045,-2.2043,-2.2092,-2.2092,-2.2092,-2.2035,-2.2032,-2.203,-2.2027,-2.205,-2.2053,-2.2057,-2.2132,0,0,-2.2067,-2.2069,0,0,0,0,0,0,0,0,-2.2013,-2.2018,-2.2049,-2.2047,-2.2045,-2.2058,-2.207,-2.2106,-2.2036,-2.2038,-2.2029,-2.2026,-2.2056,-2.2059,-2.2069,-2.2133,-2.2134,-2.2068,-2.207,-2.2071,-2.2072,0,0,0,0,0,0,0,-2.2011,-2.2017,-2.2079,-2.2049,-2.2047,-2.2033,-2.2035,-2.2076,-2.2062,-2.2038,-2.2034,-2.2037,-2.2054,-2.2065,-2.2069,-2.2134,-2.2067,-2.207,-2.2073,-2.2074,-2.2264,-2.2266,0,0,0,0,0,0,-2.2012,-2.2016,-2.2079,-2.208,-2.2022,-2.2037,-2.2039,-2.2056,-2.2061,-2.2059,-2.2039,-2.2034,-2.2061,-2.2065,-2.2069,-2.2159,-2.2071,-2.2074,-2.2076,-2.2261,-2.2264,-2.2267,0,0,0,0,0,0,-2.2011,-2.2018,-2.2078,-2.2047,-2.2053,-2.2041,-2.2062,-2.2058,-2.2069,-2.2062,-2.206,-2.2053,-2.2059,-2.2064,-2.2117,-2.2159,-2.2076,-2.2079,-2.2257,-2.2262,-2.2266,-2.2338,0,0,0,0,0,0,-2.2008,-2.2018,-2.2046,-2.2048,-2.2055,-2.2125,-2.2064,-2.206,-2.2075,-2.2068,-2.2074,-2.2073,-2.2057,-2.2112,-2.2121,-2.2162,-2.2082,-2.2253,-2.2259,-2.2264,-2.2332,-2.2345,-2.2355,0,0,0,0,0,-2.2005,-2.2065,-2.2047,-2.2055,-2.2089,-2.2127,-2.2131,-2.2112,-2.2078,-2.2107,-2.2103,-2.2073,-2.2153,-2.2118,-2.2127,-2.217,-2.2251,-2.2257,-2.2264,-2.2327,-2.2342,-2.2355,0,0,0,0,0,0,-2.2068,-2.2065,-2.2045,-2.2107,-2.2118,-2.2117,-2.2152,-2.2128,-2.2149,-2.2142,-2.2117,-2.2119,-2.2177,-2.2179,-2.214,-2.2244,-2.2196,-2.2205,-2.2241,-2.2256,-2.2267,-2.2266,-2.2084,0,0,0,0,0,-2.209,-2.212,-2.2115,-2.2171,-2.2177,-2.2164,-2.218,-2.2164,-2.2174,-2.2178,-2.2178,-2.219,-2.2218,-2.2236,-2.2262,-2.2332,-2.2334,-2.2366,-2.2378,-2.2388,-2.2396,-2.2435,-2.245,-2.2289,-2.2289,-2.2289,0,0,-2.2134,-2.2135,-2.2156,-2.2183,-2.219,-2.2223,-2.2168,-2.2205,-2.223,-2.2184,-2.2234,-2.2234,-2.2246,-2.2308,-2.2336,-2.2312,-2.244,-2.2396,-2.2404,-2.2407,-2.2444,-2.2459,-2.2472,-2.2294,-2.2293,-2.2292,0,0,-2.2231,-2.2235,-2.2282,-2.229,-2.23,-2.2291,-2.2303,-2.2306,-2.2305,-2.2355,-2.2322,-2.2351,-2.2399,-2.2409,-2.2421,-2.2524,-2.2498,-2.2533,-2.2594,-2.2633,-2.2646,-2.2657,-2.2695,-2.2709,-2.2541,-2.2541,-2.2541,0,-2.2284,-2.2332,-2.2309,-2.2349,-2.2363,-2.2323,-2.2372,-2.2381,-2.2399,-2.241,-2.2383,-2.2444,-2.2448,-2.2514,-2.2539,-2.2549,-2.2563,-2.2532,-2.2646,-2.2657,-2.2667,-2.2703,-2.2717,-2.2546,-2.2545,-2.2545,-2.2544,0,-2.2398,-2.2432,-2.2469,-2.2488,-2.2506,-2.255,-2.2535,-2.2556,-2.2539,-2.2534,-2.2586,-2.2591,-2.2617,-2.2631,-2.2615,-2.2695,-2.268,-2.265,-2.2601,-2.2687,-2.2721,-2.2734,-2.2552,-2.255,-2.2549,-2.2548,0,0,-2.2535,-2.2542,-2.2556,-2.2565,-2.2575,-2.2601,-2.2644,-2.267,-2.2689,-2.2703,-2.274,-2.2783,-2.2755,-2.2768,-2.2753,-2.2787,-2.287,-2.2752,-2.2752,-2.2775,-2.2961,-2.2985,-2.3001,-2.2853,-2.2855,-2.2857,-2.2961,0,-2.2632,-2.2705,-2.2687,-2.276,-2.2792,-2.2756,-2.2793,-2.2804,-2.2801,-2.2828,-2.2824,-2.2856,-2.2816,-2.2824,-2.2856,-2.2853,-2.2908,-2.2846,-2.2888,-2.289,-2.2887,-2.3019,-2.3044,-2.3141,-2.2974,-2.2976,-2.2978,0,-2.2754,-2.2774,-2.2851,-2.2857,-2.2869,-2.2904,-2.2927,-2.2953,-2.2965,-2.296,-2.2976,-2.2955,-2.2999,-2.2949,-2.3011,-2.2969,-2.2985,-2.2987,-2.299,-2.2994,-2.294,-2.3028,-2.3171,-2.3187,-2.2998,-2.2996,-2.2995,0,-2.2848,-2.2894,-2.2946,-2.2955,-2.2963,-2.2988,-2.2993,-2.3002,-2.3019,-2.304,-2.3051,-2.3077,-2.3091,-2.3112,-2.3099,-2.3063,-2.3163,-2.3112,-2.3162,-2.3162,-2.3185,-2.3184,-2.3334,-2.3194,-2.3193,-2.3193,-2.3193,0,-2.2959,-2.3008,-2.2989,-2.3021,-2.3075,-2.3054,-2.3109,-2.3109,-2.3118,-2.3151,-2.3121,-2.3153,-2.3132,-2.3163,-2.3152,-2.3206,-2.3212,-2.3211,-2.3208,-2.3214,-2.3215,-2.3225,-2.3219,-2.3197,-2.3196,-2.3195,-2.3195,0,-2.3073,-2.3062,-2.3117,-2.3121,-2.3123,-2.3163,-2.3166,-2.3197,-2.3192,-2.3234,-2.3242,-2.3235,-2.3269,-2.3257,-2.3294,-2.3287,-2.3356,-2.3343,-2.3352,-2.3349,-2.34,-2.3396,-2.3564,-2.3586,-2.343,-2.3431,-2.3432,0,-2.3145,-2.3182,-2.319,-2.3209,-2.3216,-2.3248,-2.3266,-2.3248,-2.3268,-2.3285,-2.3315,-2.3346,-2.3371,-2.3427,-2.3426,-2.3454,-2.3443,-2.35,-2.3447,-2.3453,-2.3446,-2.3445,-2.3449,-2.3511,-2.3513,-2.3514,-2.3515,0,-2.3274,-2.3268,-2.3294,-2.332,-2.3342,-2.3361,-2.3378,-2.3396,-2.3378,-2.3403,-2.3437,-2.3457,-2.3495,-2.3527,-2.3553,-2.3559,-2.3536,-2.3532,-2.3545,-2.3553,-2.3557,-2.3557,-2.3382,-2.3528,-2.3527,-2.3526,-2.3525,-2.3525,-2.337,-2.3402,-2.3413,-2.3445,-2.3455,-2.3472,-2.3502,-2.3501,-2.3529,-2.3559,-2.3546,-2.3587,-2.36,-2.3633,-2.3642,-2.3675,-2.3653,-2.3672,-2.3677,-2.3682,-2.3689,-2.3551,-2.3679,-2.3679,-2.3678,-2.3678,-2.3678,0,-2.3499,-2.3505,-2.3534,-2.3559,-2.3584,-2.3559,-2.3576,-2.3599,-2.3635,-2.3649,-2.3674,-2.3716,-2.3748,-2.3749,-2.3779,-2.3805,-2.3795,-2.3814,-2.3812,-2.3815,-2.3706,-2.3692,-2.3822,-2.3822,-2.3822,-2.3821,-2.3821,-2.3821,-2.357,-2.3623,-2.3618,-2.3677,-2.3682,-2.3722,-2.3734,-2.375,-2.3761,-2.3809,-2.3835,-2.3835,-2.3845,-2.3876,-2.3905,-2.3905,-2.3918,-2.3941,-2.3937,-2.3836,-2.3822,-2.3808,-2.3795,-2.3944,-2.3944,-2.4043,-2.4044,-2.4044]},{"header":{"parameterUnit":"m.s-1","parameterCategory":1,"la1":30.2991,"la2":30.254,"lo1":-89.0895,"lo2":-89.0444,"dy":0.0017,"dx":0.0017,"nx":28,"ny":28,"refTime":"2024-04-13T03:00:00:Z","depth":0,"parameterNumber":3,"parameterNumberName":"V-component_of_WINDS"},"data":[0,0,0,0,0,0,0,0,0,0,0,0,0,0,0,0,0,0,0,0,0,0,0,0,0,0,0,0,0,0,0,0,0,0,0,0,0,0,0,0,0,0,0,0,0,0,0,0,0,0,0,0,0,0,0,0,0,0,0.1686,0.1686,0,0.168,0.1679,0.1679,0.1685,0.1685,0.1685,0.1686,0.1678,0.1678,0.1677,0,0,0,0,0,0,0,0,0,0,0,0,0,0.1703,0.1702,0.1686,0.1686,0.1686,0.168,0.1679,0.1679,0.1685,0.1685,0.1686,0.1686,0.1678,0.1678,0.1677,0,0,0,0,0,0,0,0,0,0,0,0,0,0.1696,0.1702,0.1686,0.1688,0.1688,0.168,0.1679,0.1679,0.1685,0.1685,0.1686,0.1686,0.1679,0.1678,0.1677,0.1666,0,0,0.1675,0.1675,0,0,0,0,0,0,0,0,0.1696,0.1695,0.1688,0.1688,0.1688,0.1683,0.1683,0.1675,0.1685,0.1686,0.1686,0.1686,0.168,0.1679,0.1677,0.1666,0.1666,0.1675,0.1675,0.1675,0.1675,0,0,0,0,0,0,0,0.1697,0.1695,0.1683,0.1688,0.1688,0.1689,0.1688,0.1681,0.1681,0.1686,0.1686,0.1686,0.168,0.1678,0.1677,0.1666,0.1675,0.1675,0.1674,0.1674,0.1646,0.1646,0,0,0,0,0,0,0.1697,0.1696,0.1684,0.1683,0.1693,0.1688,0.1688,0.1684,0.1681,0.1681,0.1685,0.1686,0.1678,0.1678,0.1677,0.1664,0.1675,0.1674,0.1674,0.1647,0.1646,0.1646,0,0,0,0,0,0,0.1697,0.1696,0.1684,0.169,0.1688,0.1688,0.1684,0.1684,0.1682,0.1681,0.168,0.1683,0.1679,0.1677,0.1669,0.1664,0.1674,0.1673,0.1647,0.1646,0.1646,0.1638,0,0,0,0,0,0,0.1698,0.1696,0.1692,0.1689,0.1688,0.1676,0.1684,0.1684,0.1681,0.1682,0.1678,0.1678,0.1679,0.167,0.1669,0.1663,0.1673,0.1648,0.1647,0.1646,0.1639,0.1637,0.1636,0,0,0,0,0,0.1698,0.1689,0.1691,0.169,0.1683,0.1676,0.1675,0.1676,0.1681,0.1676,0.1676,0.1678,0.1665,0.1669,0.1667,0.1662,0.1648,0.1647,0.1646,0.1639,0.1638,0.1636,0,0,0,0,0,0,0.169,0.1689,0.1691,0.1682,0.1679,0.1677,0.1672,0.1674,0.167,0.1671,0.1672,0.1672,0.1663,0.1662,0.1667,0.1651,0.1657,0.1656,0.1652,0.1651,0.1649,0.1649,0.1672,0,0,0,0,0,0.1688,0.1683,0.1682,0.1673,0.1672,0.1672,0.1669,0.1671,0.1668,0.1667,0.1665,0.1662,0.1657,0.1654,0.1649,0.1639,0.1638,0.1634,0.1633,0.1632,0.163,0.1625,0.1623,0.1643,0.1643,0.1643,0,0,0.1682,0.168,0.1677,0.1672,0.167,0.1664,0.1671,0.1665,0.1661,0.1666,0.1658,0.1657,0.1654,0.1644,0.164,0.1643,0.1625,0.1631,0.163,0.1629,0.1624,0.1622,0.1621,0.1642,0.1643,0.1643,0,0,0.1668,0.1666,0.1659,0.1658,0.1655,0.1655,0.1654,0.1652,0.1651,0.1644,0.1647,0.1643,0.1634,0.1632,0.1629,0.1616,0.1618,0.1615,0.1607,0.1602,0.16,0.1599,0.1594,0.1592,0.1614,0.1613,0.1613,0,0.166,0.1653,0.1655,0.1649,0.1647,0.1651,0.1644,0.1642,0.1638,0.1636,0.164,0.163,0.1628,0.1618,0.1615,0.1613,0.1611,0.1615,0.16,0.1599,0.1598,0.1593,0.1591,0.1613,0.1613,0.1613,0.1613,0,0.1644,0.1639,0.1633,0.163,0.1627,0.162,0.1622,0.1618,0.162,0.162,0.1613,0.1611,0.1606,0.1604,0.1606,0.1595,0.1597,0.16,0.1606,0.1595,0.1591,0.1589,0.1612,0.1612,0.1613,0.1613,0,0,0.1624,0.1623,0.162,0.1619,0.1617,0.1613,0.1607,0.1603,0.16,0.1598,0.1592,0.1586,0.1589,0.1587,0.1588,0.1584,0.1573,0.1588,0.1588,0.1585,0.1561,0.1558,0.1556,0.1575,0.1575,0.1575,0.1561,0,0.161,0.1599,0.1602,0.1591,0.1587,0.1592,0.1586,0.1584,0.1585,0.1581,0.1581,0.1576,0.1581,0.158,0.1576,0.1575,0.1568,0.1576,0.157,0.157,0.157,0.1554,0.155,0.1538,0.156,0.1559,0.1559,0,0.1592,0.1589,0.1578,0.1578,0.1576,0.1571,0.1568,0.1564,0.1562,0.1563,0.1561,0.1563,0.1557,0.1564,0.1555,0.1561,0.1558,0.1558,0.1558,0.1556,0.1563,0.1552,0.1534,0.1532,0.1557,0.1557,0.1557,0,0.1578,0.1572,0.1564,0.1563,0.1562,0.1559,0.1559,0.1557,0.1555,0.1552,0.1551,0.1547,0.1545,0.1542,0.1544,0.1548,0.1535,0.1542,0.1535,0.1535,0.1532,0.1532,0.1513,0.1531,0.1531,0.1531,0.1531,0,0.1561,0.1555,0.1558,0.1554,0.1546,0.155,0.1542,0.1542,0.1541,0.1537,0.1541,0.1537,0.154,0.1536,0.1537,0.153,0.1529,0.1529,0.153,0.1529,0.1528,0.1526,0.1527,0.1531,0.1531,0.1531,0.1531,0,0.1544,0.1546,0.1539,0.1539,0.1539,0.1534,0.1534,0.153,0.1531,0.1526,0.1525,0.1526,0.1522,0.1523,0.1518,0.1519,0.151,0.1512,0.1511,0.1511,0.1505,0.1505,0.1483,0.1481,0.1501,0.1501,0.1501,0,0.1533,0.1528,0.1529,0.1526,0.1526,0.1522,0.152,0.1523,0.152,0.1519,0.1515,0.1511,0.1508,0.1501,0.1501,0.1498,0.1499,0.1492,0.1499,0.1498,0.1499,0.1499,0.1498,0.149,0.149,0.149,0.149,0,0.1514,0.1515,0.1512,0.151,0.1507,0.1505,0.1504,0.1502,0.1505,0.1502,0.1498,0.1496,0.1491,0.1487,0.1485,0.1484,0.1487,0.1488,0.1486,0.1485,0.1484,0.1484,0.1507,0.1488,0.1488,0.1488,0.1488,0.1488,0.1499,0.1495,0.1495,0.1491,0.1491,0.149,0.1486,0.1487,0.1484,0.1481,0.1483,0.1478,0.1477,0.1474,0.1473,0.1469,0.1472,0.1469,0.1469,0.1468,0.1467,0.1485,0.1469,0.1469,0.1469,0.1469,0.1469,0,0.148,0.148,0.1477,0.1475,0.1472,0.1477,0.1475,0.1473,0.1469,0.1468,0.1465,0.1461,0.1457,0.1458,0.1455,0.1452,0.1453,0.1451,0.1451,0.1451,0.1465,0.1466,0.145,0.145,0.145,0.145,0.145,0.145,0.1469,0.1463,0.1464,0.1458,0.1458,0.1454,0.1453,0.1452,0.1451,0.1446,0.1443,0.1444,0.1444,0.1441,0.1438,0.1438,0.1437,0.1434,0.1435,0.1448,0.1449,0.1451,0.1453,0.1434,0.1433,0.1421,0.1421,0.142]}]]